Regional Weather Roundup
Issued by NWS

Home | Current Version | Previous Version | Text Only | Print | Product List | Glossary Off
Versions: 1 2 3 4 5 6 7 8 9 10 11 12 13 14 15 16 17 18 19 20 21 22 23 24 25 26 27 28 29 30 31 32 33 34 35 36 37 38 39 40 41 42 43 44 45 46 47 48 49 50

395
ASUS43 KMKX 242259
RWRWI

WISCONSIN REGIONAL WEATHER ROUNDUP
NATIONAL WEATHER SERVICE MILWAUKEE/SULLIVAN WI
600 PM CDT WED MAY 24 2017

NOTE: "FAIR" INDICATES FEW OR NO CLOUDS BELOW 12,000 FEET WITH NO
SIGNIFICANT WEATHER AND/OR OBSTRUCTIONS TO VISIBILITY.

WIZ001-002-006>008-014>016-023>028-250000-
NORTHWEST WISCONSIN

CITY           SKY/WX    TMP DP  RH WIND       PRES   REMARKS
SUPERIOR ARPT  NOT AVBL
ASHLAND        CLOUDY    50  42  74 NE10      29.77S
HAYWARD        CLOUDY    59  45  59 E10       29.72F
SIREN          CLOUDY    60  42  52 NE3       29.72S
CUMBERLAND     CLOUDY    55  43  62 NE5       29.71S
RICE LAKE      CLOUDY    59  46  63 NE5       29.72S
CHETEK         CLOUDY    60  47  61 NE3       29.70S
LADYSMITH      CLOUDY    58  47  68 E6        29.73S
EAU CLAIRE     NOT AVBL
MENOMONIE      CLOUDY    61  47  61 NW7       29.69S
NEW RICHMOND   CLOUDY    59  44  56 NE3       29.71S
OSCEOLA        CLOUDY    60  44  54 NE6       29.74S
$$

WIZ003>005-009-010-017-018-250000-
NORTH CENTRAL WISCONSIN

CITY           SKY/WX    TMP DP  RH WIND       PRES   REMARKS
MANITOWISH WTR CLOUDY    53  48  84 E8        29.74R
ARBOR VITAE    MOSUNNY   55  48  76 E6        29.72F
WOODRUFF       MOSUNNY   55  48  76 E6        29.72F
RHINELANDER    CLOUDY    56  47  71 NE9       29.71F
EAGLE RIVER    CLOUDY    52  46  78 NE6       29.72F
LAND O LAKES   CLOUDY    54  47  75 NE5       29.74F
PHILLIPS       CLOUDY    55  47  75 E7        29.72R
TOMAHAWK       CLOUDY    55  46  73 NE6       29.71F
MEDFORD        CLOUDY    53  47  81 NE5       29.70S
MERRILL        CLOUDY    56  49  77 E6        29.71S
$$

WIZ029-030-035-036-043>047-250000-
CENTRAL WISCONSIN

CITY           SKY/WX    TMP DP  RH WIND       PRES   REMARKS
WAUSAU         CLOUDY    55  49  80 E6        29.68S
MOSINEE        CLOUDY    55  52  88 E7        29.70S
MARSHFIELD     CLOUDY    55  49  80 E7        29.68S
STEVENS POINT  CLOUDY    51  51  98 NE7       29.70S
WAUPACA        CLOUDY    56  51  84 N10       29.68F
WAUTOMA        CLOUDY    54  50  86 NE8       29.68S
WISC RAPIDS    CLOUDY    55  50  83 NE8       29.70S
CAMP DOUGLAS   NOT AVBL
$$

WIZ011>013-019>022-031-037>040-048>050-250000-
NORTHEAST WISCONSIN

CITY           SKY/WX    TMP DP  RH WIND       PRES   REMARKS
ANTIGO         CLOUDY    53  48  84 NE10      29.71R
SHAWANO        CLOUDY    55  51  85 NE12      29.69F
OCONTO         CLOUDY    54  50  86 NE7       29.69R
STURGEON BAY   CLOUDY    52  49  89 NE13      29.69R
GREEN BAY      CLOUDY    54  52  93 NE13      29.68S
MANITOWOC      NOT AVBL
APPLETON       CLOUDY    54  52  94 NE17      29.66S
CLINTONVILLE   CLOUDY    54  50  87 NE6       29.69S
OSHKOSH        CLOUDY    55  50  83 NE15      29.66R
$$

WIZ032>034-041-042-053>061-250000-
SOUTHWEST WISCONSIN

CITY           SKY/WX    TMP DP  RH WIND       PRES   REMARKS
LA CROSSE      CLOUDY    62  50  64 E12       29.67S
SPARTA         CLOUDY    55  51  83 N7        29.69S
VIROQUA        CLOUDY    55  50  84 MISG      29.68S
BOSCOBEL       CLOUDY    59  50  72 NE6       29.66S
PRAIRIE DU CHI CLOUDY    58  48  68 NW7       29.66S
PLATTEVILLE    CLOUDY    57  54  88 N12       29.65S
$$

WIZ056-057-062-063-064-067-068-250000-
SOUTH CENTRAL WISCONSIN

CITY           SKY/WX    TMP DP  RH WIND       PRES   REMARKS
REEDSBURG      CLOUDY    55  52  89 N6        29.66S
BARABOO/DELLS  CLOUDY    56  50  80 NE6       29.65F
LONE ROCK      NOT AVBL
MINERAL POINT  CLOUDY    57  54  88 N9        29.65S
MADISON        CLOUDY    55  51  86 N13       29.64S
MIDDLETON      CLOUDY    56  52  86 N9        29.65S
WATERTOWN      CLOUDY    58  54  88 N10       29.62S
MONROE         CLOUDY    54  52  94 N9G16     29.63S
JANESVILLE     CLOUDY    59  55  88 N12       29.61
$$

WIZ051-052-058>065-066-070>072-250000-
SOUTHEAST WISCONSIN

CITY           SKY/WX    TMP DP  RH WIND       PRES   REMARKS
MILWAUKEE      CLOUDY    59  50  72 N21G30    29.60R
WAUKESHA       CLOUDY    57  48  72 N13G20    29.62R
MILWAUKEE/TIMM NOT AVBL
RACINE         MOSUNNY   55  49  80 N21G32    29.60S
KENOSHA        CLOUDY    60  51  72 N14G26    29.58S
FOND DU LAC    CLOUDY    54  48  80 N15       29.66S
SHEBOYGAN      CLOUDY    57  53  86 N12       29.63S
WEST BEND      CLOUDY    55  52  88 N10       29.63R
JUNEAU         CLOUDY    56  52  88 N13       29.65R
$$

LSZ147-162-250000-
LAKE SUPERIOR

STATION/POSITION TIME  TEMP    WIND        PRES    WAVE
                       AIR SEA DIR/SP/G            HT/PER
                 (UTC) (F)     (DEG/KT/KT) (MB)    (FT/S)
$$

LMZ867-665-643>646-250000-
LAKE MICHIGAN

STATION/POSITION TIME  TEMP    WIND        PRES    WAVE
                       AIR SEA DIR/SP/G            HT/PER
                 (UTC) (F)     (DEG/KT/KT) (MB)    (FT/S)
$$

TC  - TEMPERATURE IN CELSIUS
VSB - VISIBILITY IN STATUTE MILES
WCI - WIND CHILL INDEX
HX  - HEAT INDEX





USA.gov is the U.S. government's official web portal to all federal, state and local government web resources and services.